Voltar ao catálogo

STARLINK-35903

AtivoComunicaçõesVLEO
NORAD 67168·PAYLOAD·🇺🇸 United States

Lançado Dec 17, 2025 de Cape Canaveral Space Force Station

Loading…

Próximas Passagens (próximas 24 horas)

TLE

AtualizadoSource: CelesTrak SupGP

Época: Sep 15, 2026, 03:23 UTC

1 67168C 25303F   26258.14145833  .00042182  00000+0  15273-2 0  2587
2 67168  43.0023 320.6113 0001315 267.9462  14.2081 15.27569823    19

Acompanhe STARLINK-35903 em tempo real com AllMySat

Download on the App Store